Previsão horária em Bolshie Ivanischi

Hoje, 4 Março, Quinta-feira

Tempo Temperatura Precipitação Vento Pressão Humidade
00:00 -4°C° 0 mm 5 m/s 740 mmHg 94%
01:00 -2°C° 0.4 mm 5 m/s 739 mmHg 95%
02:00 -3°C° 0.4 mm 6 m/s 738 mmHg 96%
03:00 -2°C° 0 mm 6 m/s 737 mmHg 98%
04:00 -2°C° 0.5 mm 6 m/s 737 mmHg 97%
05:00 -2°C° 0.5 mm 6 m/s 736 mmHg 97%
06:00 -2°C° 0.5 mm 6 m/s 735 mmHg 96%
07:00 -3°C° 0.4 mm 6 m/s 735 mmHg 91%
08:00 -4°C° 0.4 mm 5 m/s 736 mmHg 86%
09:00 -5°C° 0 mm 5 m/s 736 mmHg 81%
10:00 -5°C° 0 mm 5 m/s 736 mmHg 81%
11:00 -5°C° 0 mm 5 m/s 737 mmHg 81%
12:00 -5°C° 0 mm 5 m/s 737 mmHg 82%
13:00 -5°C° 0 mm 5 m/s 737 mmHg 82%
14:00 -4°C° 0 mm 4 m/s 737 mmHg 82%
15:00 -4°C° 0 mm 4 m/s 737 mmHg 81%
16:00 -5°C° 0 mm 3 m/s 737 mmHg 83%
17:00 -5°C° 0 mm 3 m/s 738 mmHg 86%
18:00 -5°C° 0 mm 2 m/s 738 mmHg 88%
19:00 -6°C° 0 mm 2 m/s 738 mmHg 89%
20:00 -7°C° 0 mm 2 m/s 738 mmHg 90%
21:00 -8°C° 0 mm 2 m/s 739 mmHg 91%
22:00 -8°C° 0 mm 2 m/s 739 mmHg 92%
23:00 -9°C° 0 mm 2 m/s 739 mmHg 93%

Amanhã, 5 Março, Sexta-feira

Tempo Temperatura Precipitação Vento Pressão Humidade
00:00 -10°C° 0 mm 2 m/s 739 mmHg 94%
01:00 -10°C° 0 mm 2 m/s 739 mmHg 94%
02:00 -10°C° 0 mm 2 m/s 740 mmHg 95%
03:00 -12°C° 0 mm 2 m/s 740 mmHg 95%
04:00 -10°C° 0.1 mm 2 m/s 740 mmHg 95%
05:00 -9°C° 0.1 mm 2 m/s 740 mmHg 95%
06:00 -9°C° 0.1 mm 3 m/s 741 mmHg 94%
07:00 -9°C° 0.1 mm 3 m/s 741 mmHg 94%
08:00 -9°C° 0.1 mm 3 m/s 741 mmHg 93%
09:00 -10°C° 0.1 mm 4 m/s 742 mmHg 92%
10:00 -9°C° 0.1 mm 4 m/s 742 mmHg 89%
11:00 -9°C° 0.1 mm 4 m/s 742 mmHg 86%
12:00 -8°C° 0.1 mm 4 m/s 743 mmHg 84%
13:00 -8°C° 0.1 mm 4 m/s 743 mmHg 81%
14:00 -7°C° 0.1 mm 4 m/s 744 mmHg 78%
15:00 -7°C° 0.1 mm 4 m/s 744 mmHg 76%
16:00 -7°C° 0.1 mm 3 m/s 745 mmHg 80%
17:00 -8°C° 0.1 mm 3 m/s 745 mmHg 83%
18:00 -8°C° 0.1 mm 2 m/s 745 mmHg 87%
19:00 -9°C° 0 mm 2 m/s 746 mmHg 88%
20:00 -10°C° 0 mm 2 m/s 747 mmHg 88%
21:00 -10°C° 0 mm 1 m/s 747 mmHg 89%
22:00 -11°C° 0 mm 1 m/s 747 mmHg 88%
23:00 -12°C° 0 mm 1 m/s 748 mmHg 87%

Depois de amanhã, 6 Março, Sábado

Tempo Temperatura Precipitação Vento Pressão Humidade
00:00 -12°C° 0 mm 1 m/s 748 mmHg 87%
01:00 -13°C° 0 mm 1 m/s 748 mmHg 87%
02:00 -13°C° 0 mm 1 m/s 749 mmHg 87%
03:00 -13°C° 0 mm 1 m/s 749 mmHg 87%
04:00 -13°C° 0 mm 1 m/s 749 mmHg 89%
05:00 -14°C° 0 mm 1 m/s 749 mmHg 91%
06:00 -16°C° 0 mm 2 m/s 749 mmHg 92%
07:00 -15°C° 0 mm 2 m/s 749 mmHg 92%
08:00 -15°C° 0 mm 2 m/s 749 mmHg 92%
09:00 -15°C° 0 mm 2 m/s 749 mmHg 92%
10:00 -14°C° 0 mm 2 m/s 750 mmHg 87%
11:00 -10°C° 0 mm 1 m/s 750 mmHg 83%
12:00 -9°C° 0 mm 1 m/s 750 mmHg 79%
13:00 -9°C° 0 mm 1 m/s 750 mmHg 77%
14:00 -8°C° 0 mm 1 m/s 749 mmHg 75%
15:00 -8°C° 0 mm 2 m/s 749 mmHg 74%
16:00 -9°C° 0 mm 2 m/s 749 mmHg 78%
17:00 -10°C° 0 mm 2 m/s 748 mmHg 81%
18:00 -12°C° 0 mm 2 m/s 748 mmHg 85%
19:00 -12°C° 0 mm 2 m/s 748 mmHg 86%
20:00 -12°C° 0 mm 2 m/s 747 mmHg 88%
21:00 -14°C° 0 mm 3 m/s 747 mmHg 89%
22:00 -13°C° 0 mm 3 m/s 746 mmHg 89%
23:00 -14°C° 0 mm 4 m/s 745 mmHg 89%

7 Março, Domingo

Tempo Temperatura Precipitação Vento Pressão Humidade
00:00 -12°C° 0 mm 4 m/s 744 mmHg 88%
01:00 -12°C° 0.1 mm 5 m/s 743 mmHg 90%
02:00 -12°C° 0.1 mm 6 m/s 742 mmHg 91%
03:00 -11°C° 0.1 mm 6 m/s 741 mmHg 92%
04:00 -10°C° 0.3 mm 6 m/s 739 mmHg 92%
05:00 -11°C° 0.3 mm 7 m/s 738 mmHg 92%
06:00 -9°C° 0.3 mm 7 m/s 737 mmHg 93%
07:00 -9°C° 0.3 mm 7 m/s 736 mmHg 92%
08:00 -9°C° 0.3 mm 7 m/s 735 mmHg 92%
09:00 -8°C° 0.3 mm 7 m/s 734 mmHg 92%
10:00 -8°C° 0.5 mm 7 m/s 733 mmHg 92%
11:00 -6°C° 0.5 mm 6 m/s 733 mmHg 93%
12:00 -6°C° 0.5 mm 6 m/s 732 mmHg 93%
13:00 -8°C° 0.6 mm 6 m/s 733 mmHg 88%
14:00 -9°C° 0.6 mm 6 m/s 733 mmHg 82%
15:00 -10°C° 0.6 mm 6 m/s 733 mmHg 77%
16:00 -11°C° 0 mm 5 m/s 734 mmHg 77%
17:00 -11°C° 0 mm 4 m/s 734 mmHg 77%
18:00 -12°C° 0 mm 3 m/s 735 mmHg 77%
19:00 -12°C° 0.1 mm 3 m/s 735 mmHg 82%
20:00 -12°C° 0.1 mm 3 m/s 735 mmHg 87%
21:00 -12°C° 0.1 mm 3 m/s 735 mmHg 92%
22:00 -12°C° 0.1 mm 3 m/s 734 mmHg 89%
23:00 -10°C° 0.1 mm 3 m/s 734 mmHg 87%

8 Março, Segunda-feira

Tempo Temperatura Precipitação Vento Pressão Humidade
00:00 -11°C° 0.1 mm 4 m/s 734 mmHg 84%
01:00 -10°C° 0 mm 3 m/s 734 mmHg 86%
02:00 -10°C° 0 mm 3 m/s 734 mmHg 88%
03:00 -10°C° 0 mm 3 m/s 733 mmHg 90%
04:00 -10°C° 0.1 mm 3 m/s 733 mmHg 92%
05:00 -9°C° 0.1 mm 2 m/s 733 mmHg 94%
06:00 -9°C° 0.1 mm 2 m/s 733 mmHg 95%
07:00 -9°C° 0.2 mm 2 m/s 734 mmHg 95%
08:00 -8°C° 0.2 mm 1 m/s 734 mmHg 94%
09:00 -8°C° 0.2 mm 1 m/s 735 mmHg 94%
10:00 -9°C° 0.1 mm 2 m/s 736 mmHg 90%
11:00 -11°C° 0.1 mm 4 m/s 736 mmHg 87%
12:00 -12°C° 0.1 mm 5 m/s 737 mmHg 84%
13:00 -12°C° 0 mm 5 m/s 738 mmHg 84%
14:00 -13°C° 0 mm 5 m/s 739 mmHg 85%
15:00 -13°C° 0 mm 5 m/s 740 mmHg 85%
16:00 -12°C° 0 mm 4 m/s 741 mmHg 87%
17:00 -12°C° 0 mm 4 m/s 741 mmHg 89%
18:00 -12°C° 0 mm 3 m/s 742 mmHg 91%
19:00 -13°C° 0 mm 3 m/s 743 mmHg 92%
20:00 -14°C° 0 mm 3 m/s 744 mmHg 93%
21:00 -15°C° 0 mm 3 m/s 744 mmHg 94%
22:00 -16°C° 0 mm 3 m/s 745 mmHg 94%
23:00 -17°C° 0 mm 3 m/s 745 mmHg 95%

9 Março, Terça-feira

Tempo Temperatura Precipitação Vento Pressão Humidade
00:00 -17°C° 0 mm 2 m/s 746 mmHg 96%
01:00 -17°C° 0 mm 2 m/s 746 mmHg 96%
02:00 -17°C° 0 mm 2 m/s 747 mmHg 96%
03:00 -18°C° 0 mm 2 m/s 747 mmHg 96%
04:00 -19°C° 0 mm 3 m/s 748 mmHg 95%
05:00 -18°C° 0 mm 3 m/s 749 mmHg 95%
06:00 -18°C° 0 mm 3 m/s 749 mmHg 94%
07:00 -19°C° 0 mm 3 m/s 750 mmHg 94%
08:00 -21°C° 0 mm 3 m/s 750 mmHg 93%
09:00 -21°C° 0 mm 3 m/s 751 mmHg 92%
10:00 -21°C° 0 mm 3 m/s 751 mmHg 91%
11:00 -19°C° 0 mm 3 m/s 752 mmHg 89%
12:00 -18°C° 0 mm 3 m/s 752 mmHg 88%
13:00 -18°C° 0 mm 3 m/s 752 mmHg 87%
14:00 -17°C° 0 mm 3 m/s 753 mmHg 86%
15:00 -17°C° 0 mm 3 m/s 753 mmHg 85%
16:00 -18°C° 0 mm 3 m/s 753 mmHg 87%
17:00 -18°C° 0 mm 2 m/s 753 mmHg 90%
18:00 -17°C° 0 mm 1 m/s 753 mmHg 92%
19:00 -17°C° 0 mm 1 m/s 753 mmHg 92%
20:00 -17°C° 0 mm 1 m/s 754 mmHg 92%
21:00 -17°C° 0 mm 0 m/s 754 mmHg 92%
22:00 -17°C° 0 mm 1 m/s 754 mmHg 92%
23:00 -17°C° 0 mm 1 m/s 754 mmHg 93%
Mostrar mais